Погода в Тарановке

Украина / Харьковская область     49°37′34″N   36°09′12″E
темп.,
°C
ветер,
м/с
пор.,
м/с
влажн.,
%
обл.,
%
осадки,
мм/ч
давл.,
гПа
погр.,
м
16 июня, ср
ср1600:00+18св22875 0.0 100915
03:00+17всв2291100 2.3 101013
06:00+18ссв1190100 0.8 101020
09:00+20ссв3585100 2.0 1011153
12:00+24вюв3461100 0.8 10111017
15:00+25в3357100 0.8 10111326
18:00+24в24685 0.8 1011481
21:00+19св22850 1.9 101222
17 июня, чт
чт1700:00+18св3390100 0.0 101349
03:00+17св379593 0.1 1014149
06:00+18св4119396 0.0 1014316
09:00+22всв697953 0.0 1015697
12:00+25всв676699 0.0 10161348
15:00+25всв687099 0.8 10161673
18:00+24св711801 1.0 1017875
21:00+20св715832 1.3 1018631
18 июня, пт
пт1800:00+19всв716801 0.0 1019631
03:00+17всв615750 0.0 1020477
06:00+16всв512825 0.0 1021509
09:00+19всв811724 0.0 1022770
12:00+23в79635 0.0 10221231
15:00+24всв796014 0.0 10221541
18:00+22всв68670 0.0 10221061
21:00+19всв512800 0.0 1023386
19 июня, сб
сб1900:00+17всв5128171 0.0 1023356
03:00+16всв512845 0.0 1023344
06:00+15всв5128211 0.0 1024367
09:00+18в7116789 0.0 1024601
12:00+22в810605 0.1 10231019
15:00+23в710645 1.2 10221211
18:00+23в69690 0.6 10211044
21:00+19всв512790 0.6 1022371
20 июня, вс
вс2000:00+17всв412810 0.0 1022259
03:00+15всв411840 0.0 1022244
06:00+16всв512815 0.0 1022292
09:00+21в6106134 0.0 1021498
12:00+24в710515 0.0 1020881
15:00+26в71056100 0.0 10191051
18:00+24в71266100 0.0 1018797
21:00+21всв61368100 0.0 1018450